Flag for Belarus Weather past 2 weeks in Gomel, Belarus

Now
45 °F

Sunny.


Feels Like: 38 °F
Forecast: 31 / 48 °F
Wind: 15 mph from North

Location: Gomel'

Current Time: Apr 21, 2015 at 5:41:13 PM

Latest Report: Apr 21, 2015 at 5:00 PM


Visibility: 10 mi

Pressure: 29.86 "Hg

Humidity: 57%

Dew point: 30 °F

Location of GomelLocation

Historic Weather in Gomel — Graph

°F

Gomel temperature yesterday

Maximum temperature yesterday: 43 °F (at 3:00 PM)
Minimum temperature yesterday: 32 °F (at 7:00 AM)
Average temperature yesterday: 38 °F

Past Weeks' High & Low Weather Summary

 TemperatureHumidityPressure
High73 °F (Apr 12, 2:00 PM)100% (Apr 7, 3:00 AM)30.21 "Hg (Apr 7, 3:00 AM)
Low28 °F (Apr 8, 6:00 AM)15% (Apr 9, 5:00 PM)29.47 "Hg (Apr 16, 9:00 AM)
Average45 °F63%29.90 "Hg
* Reported Apr 6 4:00 PM — Apr 21 4:30 PM, Gomel, Weather by CustomWeather, © 2015

Note: Actual official high and low records may vary slightly from our data, if they occured in-between our weather recording intervals... More about our weather records

Advertising

Gomel weather history for previous 24 hours

 ConditionsComfort  
Time TempWeatherWind HumidityBarometerVisibility
4:30 PM
Tue, Apr 21
45 °FPartly sunny.10 mph57%29.86 "HgN/A
4:00 PM45 °FSunny.10 mph57%29.86 "Hg10 mi
3:30 PM43 °FSunny.10 mph61%29.86 "Hg10 mi
3:00 PM43 °FSunny.13 mph61%29.86 "Hg10 mi
2:30 PM43 °FBroken clouds.13 mph61%29.86 "HgN/A
2:00 PM43 °FPartly sunny.15 mph61%29.86 "HgN/A
1:30 PM45 °FPartly sunny.13 mph53%29.86 "HgN/A
1:00 PM45 °FMostly cloudy.10 mph53%29.83 "HgN/A
12:30 PM43 °FPartly sunny.15 mph57%29.83 "HgN/A
12:00 PM43 °FPartly sunny.10 mph57%29.83 "HgN/A
11:30 AM41 °FPartly sunny.13 mph61%29.83 "HgN/A
11:00 AM41 °FPartly sunny.13 mph61%29.83 "HgN/A
10:30 AM39 °FPartly sunny.13 mph65%29.83 "HgN/A
10:00 AM39 °FPartly sunny.10 mph65%29.83 "HgN/A
9:30 AM39 °FSunny.15 mph61%29.83 "Hg10 mi
9:00 AM39 °FSunny.15 mph61%29.83 "Hg10 mi
8:30 AM36 °FSunny.10 mph70%29.80 "Hg10 mi
8:00 AM36 °FSunny.13 mph70%29.80 "Hg10 mi
7:30 AM36 °FSunny.10 mph75%29.80 "Hg10 mi
7:00 AM36 °FPartly sunny.8 mph75%29.80 "HgN/A
6:30 AM32 °FPassing clouds.8 mph87%29.80 "HgN/A
6:00 AM32 °FPassing clouds.10 mph87%29.80 "HgN/A
5:00 AM32 °FClear.10 mph87%29.80 "Hg10 mi
4:00 AM36 °FClear.13 mph81%29.77 "Hg10 mi
3:00 AM36 °FClear.13 mph81%29.77 "Hg10 mi
2:00 AM36 °FClear.13 mph81%29.77 "Hg10 mi
1:00 AM36 °FClear.13 mph75%29.77 "Hg10 mi
12:00 AM37 °FClear.13 mph70%29.74 "Hg10 mi
11:00 PM
Mon, Apr 20
36 °FClear.8 mph70%29.74 "Hg10 mi
10:00 PM36 °FClear.8 mph70%29.74 "Hg10 mi
9:00 PM37 °FSunny.6 mph65%29.74 "Hg10 mi
8:00 PM39 °FSunny.8 mph61%29.71 "Hg10 mi
7:30 PM41 °FSunny.13 mph57%29.71 "Hg10 mi
7:00 PM41 °FSunny.10 mph57%29.71 "Hg10 mi
6:30 PM41 °FPartly sunny.13 mph53%29.71 "HgN/A
6:00 PM41 °FPartly sunny.17 mph53%29.71 "HgN/A
5:30 PM41 °FPartly sunny.17 mph53%29.68 "HgN/A
5:00 PM41 °FPartly sunny.17 mph53%29.68 "HgN/A
Weather by CustomWeather, © 2015

See weather overviewHow to use our weather pages